Home   Weather   Yuzhno-Sakhalinsk   Past weeks

Flag for Russia Past Weather in Yuzhno-Sakhalinsk, Russia — Yesterday and Last 2 Weeks

Now
-4 °F

Ice fog.


Feels Like: -12 °F
Forecast: 6 / 18 °F
Wind: 3 mph from Northeast

Location: Yuzhno Airport-Sakhalinsk

Current Time: Jan 20, 2018 at 11:04:52 am

Latest Report: Jan 20, 2018 at 10:00 am


Visibility: 2 mi

Pressure: 30.04 "Hg

Humidity: 84%

Dew Point: -8 °F

Location of Yuzhno-SakhalinskLocation

Past Weather in Yuzhno-Sakhalinsk — Graph

°F

Yuzhno-Sakhalinsk Temperature Yesterday

Maximum temperature yesterday: 19 °F (at 2:00 am)
Minimum temperature yesterday: -4 °F (at 11:00 pm)
Average temperature yesterday: 12 °F

High & Low Weather Summary for the Past Weeks

 TemperatureHumidityPressure
High34 °F (Jan 9, 4:00 pm)100% (Jan 5, 8:30 pm)30.30 "Hg (Jan 5, 8:30 pm)
Low-17 °F (Jan 13, 7:00 am)57% (Jan 12, 5:30 pm)28.85 "Hg (Jan 9, 10:00 pm)
Average14 °F86%29.85 "Hg
* Reported Jan 5 10:00 am — Jan 20 10:00 am, Yuzhno-Sakhalinsk. Weather by CustomWeather, © 2018

Note: Actual official high and low records may vary slightly from our data, if they occured in-between our weather recording intervals... More about our weather records

Advertising

Yuzhno-Sakhalinsk Weather History for the Previous 24 Hours

Scroll right to see more
 ConditionsComfort  
Time TempWeatherWind HumidityBarometerVisibility
10:00 am
Sat, Jan 20
-4 °FIce fog.3 mph84%30.04 "Hg2 mi
9:30 am-9 °FClear.1 mph84%30.04 "Hg2 mi
9:00 am-9 °FClear.3 mph84%30.04 "Hg3 mi
8:30 am-15 °FClear.1 mph83%30.07 "Hg4 mi
8:00 am-11 °FClear.3 mph84%30.07 "Hg4 mi
7:30 am-15 °FClear.1 mph83%30.07 "HgN/A
7:00 am-11 °FClear.1 mph84%30.04 "HgN/A
6:30 am-13 °FClear.No wind83%30.07 "HgN/A
6:00 am-11 °FClear.No wind76%30.07 "HgN/A
5:00 am-8 °FClear.1 mph84%30.07 "Hg4 mi
4:00 am-4 °FClear.3 mph84%30.07 "Hg4 mi
3:00 am-6 °FClear.3 mph84%30.07 "Hg4 mi
2:00 am-8 °FClear.3 mph77%30.07 "Hg4 mi
1:00 am-9 °FClear.1 mph77%30.07 "Hg4 mi
12:00 am-9 °FClear.3 mph77%30.07 "HgN/A
11:00 pm
Fri, Jan 19
-4 °FClear.3 mph84%30.07 "HgN/A
10:30 pm-2 °FClear.3 mph84%30.07 "HgN/A
3:30 pm19 °FScattered clouds.8 mph73%30.01 "HgN/A
3:00 pm19 °FScattered clouds.8 mph73%30.01 "HgN/A
2:30 pm18 °FSnow flurries. Scattered clouds.8 mph79%30.01 "HgN/A
2:00 pm19 °FSnow flurries. Scattered clouds.8 mph73%30.01 "HgN/A
1:30 pm18 °FSnow flurries. Scattered clouds.8 mph79%30.01 "HgN/A
12:30 pm18 °FScattered clouds.10 mph79%30.01 "HgN/A
12:00 pm18 °FPassing clouds.8 mph79%30.01 "HgN/A
11:30 am14 °FPassing clouds.10 mph85%30.01 "HgN/A
11:00 am10 °FClear.8 mph85%30.01 "HgN/A
Weather by CustomWeather, © 2018

See weather overview